Year,Month,Day,Hour,Minute,Value (Times are PST for temperature in C)
2017,04,02,00,00,6.30
2017,04,02,00,01,6.20
2017,04,02,00,02,6.20
2017,04,02,00,03,6.20
2017,04,02,00,04,6.20
2017,04,02,00,05,6.20
2017,04,02,00,06,6.20
2017,04,02,00,07,6.20
2017,04,02,00,08,6.20
2017,04,02,00,09,6.10
2017,04,02,00,10,6.10
2017,04,02,00,11,6.10
2017,04,02,00,12,6.10
2017,04,02,00,13,6.10
2017,04,02,00,14,6.00
2017,04,02,00,15,6.00
2017,04,02,00,16,6.00
2017,04,02,00,17,6.00
2017,04,02,00,18,6.00
2017,04,02,00,19,6.00
2017,04,02,00,20,6.00
2017,04,02,00,21,5.90
2017,04,02,00,22,5.90
2017,04,02,00,23,5.90
2017,04,02,00,24,5.90
2017,04,02,00,25,6.00
2017,04,02,00,26,6.00
2017,04,02,00,27,5.90
2017,04,02,00,28,5.90
2017,04,02,00,29,5.90
2017,04,02,00,30,5.90
2017,04,02,00,31,5.90
2017,04,02,00,32,6.00
2017,04,02,00,33,6.10
2017,04,02,00,34,6.10
2017,04,02,00,35,6.10
2017,04,02,00,36,6.10
2017,04,02,00,37,6.10
2017,04,02,00,38,6.10
2017,04,02,00,39,6.10
2017,04,02,00,40,6.10
2017,04,02,00,41,6.00
2017,04,02,00,42,6.00
2017,04,02,00,43,6.00
2017,04,02,00,44,6.00
2017,04,02,00,45,6.10
2017,04,02,00,46,6.10
2017,04,02,00,47,6.20
2017,04,02,00,48,6.30
2017,04,02,00,49,6.40
2017,04,02,00,50,6.50
2017,04,02,00,51,6.60
2017,04,02,00,52,6.60
2017,04,02,00,53,6.70
2017,04,02,00,54,6.70
2017,04,02,00,55,6.80
2017,04,02,00,56,6.80
2017,04,02,00,57,6.80
2017,04,02,00,58,6.70
2017,04,02,00,59,6.60
2017,04,02,01,00,6.60
2017,04,02,01,01,6.50
2017,04,02,01,02,6.50
2017,04,02,01,03,6.50
2017,04,02,01,04,6.50
2017,04,02,01,05,6.60
2017,04,02,01,06,6.60
2017,04,02,01,07,6.70
2017,04,02,01,08,6.70
2017,04,02,01,09,6.70
2017,04,02,01,10,6.70
2017,04,02,01,11,6.80
2017,04,02,01,12,6.80
2017,04,02,01,13,6.80
2017,04,02,01,14,6.90
2017,04,02,01,15,6.90
2017,04,02,01,16,6.90
2017,04,02,01,17,6.90
2017,04,02,01,18,6.90
2017,04,02,01,19,6.90
2017,04,02,01,20,6.90
2017,04,02,01,21,6.90
2017,04,02,01,22,6.90
2017,04,02,01,23,6.90
2017,04,02,01,24,7.00
2017,04,02,01,25,7.00
2017,04,02,01,26,7.00
2017,04,02,01,27,7.00
2017,04,02,01,28,7.00
2017,04,02,01,29,7.00
2017,04,02,01,30,7.00
2017,04,02,01,31,6.90
2017,04,02,01,32,6.80
2017,04,02,01,33,6.80
2017,04,02,01,34,6.70
2017,04,02,01,35,6.60
2017,04,02,01,36,6.50
2017,04,02,01,37,6.40
2017,04,02,01,38,6.30
2017,04,02,01,39,6.30
2017,04,02,01,40,6.20
2017,04,02,01,41,6.20
2017,04,02,01,42,6.20
2017,04,02,01,43,6.10
2017,04,02,01,44,6.10
2017,04,02,01,45,6.10
2017,04,02,01,46,6.00
2017,04,02,01,47,5.90
2017,04,02,01,48,5.90
2017,04,02,01,49,5.80
2017,04,02,01,50,5.80
2017,04,02,01,51,5.70
2017,04,02,01,52,5.60
2017,04,02,01,53,5.50
2017,04,02,01,54,5.50
2017,04,02,01,55,5.40
2017,04,02,01,56,5.40
2017,04,02,01,57,5.40
2017,04,02,01,58,5.30
2017,04,02,01,59,5.30
2017,04,02,02,00,5.20
2017,04,02,02,01,5.20
2017,04,02,02,02,5.20
2017,04,02,02,03,5.10
2017,04,02,02,04,5.10
2017,04,02,02,05,5.00
2017,04,02,02,06,5.00
2017,04,02,02,07,5.00
2017,04,02,02,08,4.90
2017,04,02,02,09,4.90
2017,04,02,02,10,4.80
2017,04,02,02,11,4.80
2017,04,02,02,12,4.80
2017,04,02,02,13,4.80
2017,04,02,02,14,4.70
2017,04,02,02,15,4.70
2017,04,02,02,16,4.60
2017,04,02,02,17,4.60
2017,04,02,02,18,4.60
2017,04,02,02,19,4.50
2017,04,02,02,20,4.40
2017,04,02,02,21,4.40
2017,04,02,02,22,4.40
2017,04,02,02,23,4.40
2017,04,02,02,24,4.40
2017,04,02,02,25,4.40
2017,04,02,02,26,4.40
2017,04,02,02,27,4.40
2017,04,02,02,28,4.40
2017,04,02,02,29,4.50
2017,04,02,02,30,4.50
2017,04,02,02,31,4.50
2017,04,02,02,32,4.60
2017,04,02,02,33,4.60
2017,04,02,02,34,4.60
2017,04,02,02,35,4.70
2017,04,02,02,36,4.80
2017,04,02,02,37,4.90
2017,04,02,02,38,5.10
2017,04,02,02,39,5.20
2017,04,02,02,40,5.20
2017,04,02,02,41,5.20
2017,04,02,02,42,5.20
2017,04,02,02,43,5.30
2017,04,02,02,44,5.30
2017,04,02,02,45,5.30
2017,04,02,02,46,5.40
2017,04,02,02,47,5.40
2017,04,02,02,48,5.40
2017,04,02,02,49,5.40
2017,04,02,02,50,5.40
2017,04,02,02,51,5.40
2017,04,02,02,52,5.50
2017,04,02,02,53,5.50
2017,04,02,02,54,5.40
2017,04,02,02,55,5.40
2017,04,02,02,56,5.40
2017,04,02,02,57,5.30
2017,04,02,02,58,5.30
2017,04,02,02,59,5.30
2017,04,02,03,00,5.20
2017,04,02,03,01,5.20
2017,04,02,03,02,5.20
2017,04,02,03,03,5.20
2017,04,02,03,04,5.10
2017,04,02,03,05,5.10
2017,04,02,03,06,5.10
2017,04,02,03,07,5.00
2017,04,02,03,08,4.90
2017,04,02,03,09,4.90
2017,04,02,03,10,4.90
2017,04,02,03,11,4.80
2017,04,02,03,12,4.80
2017,04,02,03,13,4.70
2017,04,02,03,14,4.70
2017,04,02,03,15,4.60
2017,04,02,03,16,4.60
2017,04,02,03,17,4.60
2017,04,02,03,18,4.60
2017,04,02,03,19,4.60
2017,04,02,03,20,4.50
2017,04,02,03,21,4.50
2017,04,02,03,22,4.40
2017,04,02,03,23,4.40
2017,04,02,03,24,4.30
2017,04,02,03,25,4.20
2017,04,02,03,26,4.10
2017,04,02,03,27,4.00
2017,04,02,03,28,4.00
2017,04,02,03,29,3.90
2017,04,02,03,30,3.90
2017,04,02,03,31,3.80
2017,04,02,03,32,3.80
2017,04,02,03,33,3.80
2017,04,02,03,34,3.70
2017,04,02,03,35,3.70
2017,04,02,03,36,3.70
2017,04,02,03,37,3.70
2017,04,02,03,38,3.60
2017,04,02,03,39,3.60
2017,04,02,03,40,3.60
2017,04,02,03,41,3.60
2017,04,02,03,42,3.60
2017,04,02,03,43,3.60
2017,04,02,03,44,3.60
2017,04,02,03,45,3.50
2017,04,02,03,46,3.50
2017,04,02,03,47,3.50
2017,04,02,03,48,3.40
2017,04,02,03,49,3.40
2017,04,02,03,50,3.40
2017,04,02,03,51,3.30
2017,04,02,03,52,3.30
2017,04,02,03,53,3.30
2017,04,02,03,54,3.20
2017,04,02,03,55,3.20
2017,04,02,03,56,3.20
2017,04,02,03,57,3.20
2017,04,02,03,58,3.20
2017,04,02,03,59,3.10
2017,04,02,04,00,3.10
2017,04,02,04,01,3.10
2017,04,02,04,02,3.10
2017,04,02,04,03,3.10
2017,04,02,04,04,3.10
2017,04,02,04,05,3.10
2017,04,02,04,06,3.10
2017,04,02,04,07,3.10
2017,04,02,04,08,3.10
2017,04,02,04,09,3.10
2017,04,02,04,10,3.10
2017,04,02,04,11,3.10
2017,04,02,04,12,3.10
2017,04,02,04,13,3.10
2017,04,02,04,14,3.10
2017,04,02,04,15,3.10
2017,04,02,04,16,3.10
2017,04,02,04,17,3.10
2017,04,02,04,18,3.10
2017,04,02,04,19,3.10
2017,04,02,04,20,3.00
2017,04,02,04,21,3.00
2017,04,02,04,22,3.00
2017,04,02,04,23,3.00
2017,04,02,04,24,3.00
2017,04,02,04,25,3.00
2017,04,02,04,26,3.00
2017,04,02,04,27,3.00
2017,04,02,04,28,3.00
2017,04,02,04,29,3.00
2017,04,02,04,30,3.00
2017,04,02,04,31,3.00
2017,04,02,04,32,3.00
2017,04,02,04,33,3.00
2017,04,02,04,34,3.00
2017,04,02,04,35,3.10
2017,04,02,04,36,3.10
2017,04,02,04,37,3.10
2017,04,02,04,38,3.20
2017,04,02,04,39,3.20
2017,04,02,04,40,3.20
2017,04,02,04,41,3.20
2017,04,02,04,42,3.20
2017,04,02,04,43,3.20
2017,04,02,04,44,3.20
2017,04,02,04,45,3.20
2017,04,02,04,46,3.20
2017,04,02,04,47,3.20
2017,04,02,04,48,3.20
2017,04,02,04,49,3.20
2017,04,02,04,50,3.10
2017,04,02,04,51,3.10
2017,04,02,04,52,3.00
2017,04,02,04,53,3.00
2017,04,02,04,54,3.00
2017,04,02,04,55,3.00
2017,04,02,04,56,3.00
2017,04,02,04,57,2.90
2017,04,02,04,58,3.00
2017,04,02,04,59,2.90
2017,04,02,05,00,2.90
2017,04,02,05,01,2.90
2017,04,02,05,02,2.90
2017,04,02,05,03,2.90
2017,04,02,05,04,2.80
2017,04,02,05,05,2.80
2017,04,02,05,06,2.80
2017,04,02,05,07,2.80
2017,04,02,05,08,2.70
2017,04,02,05,09,2.70
2017,04,02,05,10,2.70
2017,04,02,05,11,2.70
2017,04,02,05,12,2.60
2017,04,02,05,13,2.60
2017,04,02,05,14,2.60
2017,04,02,05,15,2.60
2017,04,02,05,16,2.60
2017,04,02,05,17,2.50
2017,04,02,05,18,2.50
2017,04,02,05,19,2.50
2017,04,02,05,20,2.40
2017,04,02,05,21,2.40
2017,04,02,05,22,2.40
2017,04,02,05,23,2.40
2017,04,02,05,24,2.40
2017,04,02,05,25,2.40
2017,04,02,05,26,2.40
2017,04,02,05,27,2.30
2017,04,02,05,28,2.30
2017,04,02,05,29,2.30
2017,04,02,05,30,2.30
2017,04,02,05,31,2.30
2017,04,02,05,32,2.30
2017,04,02,05,33,2.30
2017,04,02,05,34,2.30
2017,04,02,05,35,2.30
2017,04,02,05,36,2.20
2017,04,02,05,37,2.20
2017,04,02,05,38,2.20
2017,04,02,05,39,2.20
2017,04,02,05,40,2.20
2017,04,02,05,41,2.20
2017,04,02,05,42,2.20
2017,04,02,05,43,2.20
2017,04,02,05,44,2.10
2017,04,02,05,45,2.10
2017,04,02,05,46,2.10
2017,04,02,05,47,2.10
2017,04,02,05,48,2.10
2017,04,02,05,49,2.10
2017,04,02,05,50,2.10
2017,04,02,05,51,2.10
2017,04,02,05,52,2.10
2017,04,02,05,53,2.10
2017,04,02,05,54,2.10
2017,04,02,05,55,2.10
2017,04,02,05,56,2.10
2017,04,02,05,57,2.20
2017,04,02,05,58,2.20
2017,04,02,05,59,2.20
2017,04,02,06,00,2.30
2017,04,02,06,01,2.30
2017,04,02,06,02,2.30
2017,04,02,06,03,2.40
2017,04,02,06,04,2.40
2017,04,02,06,05,2.40
2017,04,02,06,06,2.50
2017,04,02,06,07,2.50
2017,04,02,06,08,2.50
2017,04,02,06,09,2.50
2017,04,02,06,10,2.50
2017,04,02,06,11,2.50
2017,04,02,06,12,2.60
2017,04,02,06,13,2.60
2017,04,02,06,14,2.60
2017,04,02,06,15,2.60
2017,04,02,06,16,2.60
2017,04,02,06,17,2.60
2017,04,02,06,18,2.60
2017,04,02,06,19,2.60
2017,04,02,06,20,2.60
2017,04,02,06,21,2.60
2017,04,02,06,22,2.50
2017,04,02,06,23,2.50
2017,04,02,06,24,2.40
2017,04,02,06,25,2.30
2017,04,02,06,26,2.30
2017,04,02,06,27,2.20
2017,04,02,06,28,2.20
2017,04,02,06,29,2.10
2017,04,02,06,30,2.00
2017,04,02,06,31,2.00
2017,04,02,06,32,2.00
2017,04,02,06,33,1.90
2017,04,02,06,34,1.90
2017,04,02,06,35,1.90
2017,04,02,06,36,1.80
2017,04,02,06,37,1.80
2017,04,02,06,38,1.80
2017,04,02,06,39,1.80
2017,04,02,06,40,1.80
2017,04,02,06,41,1.80
2017,04,02,06,42,1.80
2017,04,02,06,43,1.80
2017,04,02,06,44,1.70
2017,04,02,06,45,1.70
2017,04,02,06,46,1.70
2017,04,02,06,47,1.70
2017,04,02,06,48,1.70
2017,04,02,06,49,1.70
2017,04,02,06,50,1.70
2017,04,02,06,51,1.70
2017,04,02,06,52,1.70
2017,04,02,06,53,1.70
2017,04,02,06,54,1.70
2017,04,02,06,55,1.70
2017,04,02,06,56,1.70
2017,04,02,06,57,1.70
2017,04,02,06,58,1.70
2017,04,02,06,59,1.70
2017,04,02,07,00,1.70
2017,04,02,07,01,1.70
2017,04,02,07,02,1.70
2017,04,02,07,03,1.70
2017,04,02,07,04,1.70
2017,04,02,07,05,1.70
2017,04,02,07,06,1.70
2017,04,02,07,07,1.60
2017,04,02,07,08,1.60
2017,04,02,07,09,1.60
2017,04,02,07,10,1.50
2017,04,02,07,11,1.50
2017,04,02,07,12,1.50
2017,04,02,07,13,1.40
2017,04,02,07,14,1.40
2017,04,02,07,15,1.40
2017,04,02,07,16,1.40
2017,04,02,07,17,1.40
2017,04,02,07,18,1.30
2017,04,02,07,19,1.40
2017,04,02,07,20,1.30
2017,04,02,07,21,1.30
2017,04,02,07,22,1.30
2017,04,02,07,23,1.30
2017,04,02,07,24,1.30
2017,04,02,07,25,1.30
2017,04,02,07,26,1.30
2017,04,02,07,27,1.30
2017,04,02,07,28,1.30
2017,04,02,07,29,1.30
2017,04,02,07,30,1.20
2017,04,02,07,31,1.20
2017,04,02,07,32,1.20
2017,04,02,07,33,1.20
2017,04,02,07,34,1.20
2017,04,02,07,35,1.20
2017,04,02,07,36,1.20
2017,04,02,07,37,1.20
2017,04,02,07,38,1.20
2017,04,02,07,39,1.10
2017,04,02,07,40,1.10
2017,04,02,07,41,1.10
2017,04,02,07,42,1.10
2017,04,02,07,43,1.10
2017,04,02,07,44,1.10
2017,04,02,07,45,1.10
2017,04,02,07,46,1.10
2017,04,02,07,47,1.10
2017,04,02,07,48,1.10
2017,04,02,07,49,1.10
2017,04,02,07,50,1.10
2017,04,02,07,51,1.10
2017,04,02,07,52,1.10
2017,04,02,07,53,1.10
2017,04,02,07,54,1.10
2017,04,02,07,55,1.10
2017,04,02,07,56,1.10
2017,04,02,07,57,1.10
2017,04,02,07,58,1.20
2017,04,02,07,59,1.20
2017,04,02,08,00,1.20
2017,04,02,08,01,1.20
2017,04,02,08,02,1.20
2017,04,02,08,03,1.20
2017,04,02,08,04,1.20
2017,04,02,08,05,1.20
2017,04,02,08,06,1.30
2017,04,02,08,07,1.30
2017,04,02,08,08,1.40
2017,04,02,08,09,1.40
2017,04,02,08,10,1.50
2017,04,02,08,11,1.50
2017,04,02,08,12,1.50
2017,04,02,08,13,1.60
2017,04,02,08,14,1.60
2017,04,02,08,15,1.70
2017,04,02,08,16,1.70
2017,04,02,08,17,1.70
2017,04,02,08,18,1.70
2017,04,02,08,19,1.70
2017,04,02,08,20,1.70
2017,04,02,08,21,1.80
2017,04,02,08,22,1.80
2017,04,02,08,23,1.80
2017,04,02,08,24,1.70
2017,04,02,08,25,1.70
2017,04,02,08,26,1.70
2017,04,02,08,27,1.70
2017,04,02,08,28,1.60
2017,04,02,08,29,1.60
2017,04,02,08,30,1.60
2017,04,02,08,31,1.60
2017,04,02,08,32,1.60
2017,04,02,08,33,1.60
2017,04,02,08,34,1.60
2017,04,02,08,35,1.70
2017,04,02,08,36,1.70
2017,04,02,08,37,1.70
2017,04,02,08,38,1.80
2017,04,02,08,39,1.80
2017,04,02,08,40,1.80
2017,04,02,08,41,1.90
2017,04,02,08,42,1.90
2017,04,02,08,43,1.90
2017,04,02,08,44,2.00
2017,04,02,08,45,2.00
2017,04,02,08,46,2.00
2017,04,02,08,47,2.10
2017,04,02,08,48,2.20
2017,04,02,08,49,2.30
2017,04,02,08,50,2.50
2017,04,02,08,51,2.60
2017,04,02,08,52,2.70
2017,04,02,08,53,2.80
2017,04,02,08,54,2.90
2017,04,02,08,55,3.00
2017,04,02,08,56,3.10
2017,04,02,08,57,3.20
2017,04,02,08,58,3.20
2017,04,02,08,59,3.20
2017,04,02,09,00,3.30
2017,04,02,09,01,3.30
2017,04,02,09,02,3.40
2017,04,02,09,03,3.40
2017,04,02,09,04,3.50
2017,04,02,09,05,3.60
2017,04,02,09,06,3.60
2017,04,02,09,07,3.70
2017,04,02,09,08,3.80
2017,04,02,09,09,3.80
2017,04,02,09,10,3.90
2017,04,02,09,11,3.90
2017,04,02,09,12,4.10
2017,04,02,09,13,4.20
2017,04,02,09,14,4.30
2017,04,02,09,15,4.30
2017,04,02,09,16,4.40
2017,04,02,09,17,4.50
2017,04,02,09,18,4.50
2017,04,02,09,19,4.60
2017,04,02,09,20,4.60
2017,04,02,09,21,4.70
2017,04,02,09,22,4.70
2017,04,02,09,23,4.70
2017,04,02,09,24,4.70
2017,04,02,09,25,4.80
2017,04,02,09,26,4.80
2017,04,02,09,27,4.80
2017,04,02,09,28,4.80
2017,04,02,09,29,4.90
2017,04,02,09,30,5.00
2017,04,02,09,31,5.10
2017,04,02,09,32,5.20
2017,04,02,09,33,5.40
2017,04,02,09,34,5.50
2017,04,02,09,35,5.70
2017,04,02,09,36,5.80
2017,04,02,09,37,6.00
2017,04,02,09,38,6.10
2017,04,02,09,39,6.20
2017,04,02,09,40,6.30
2017,04,02,09,41,6.40
2017,04,02,09,42,6.40
2017,04,02,09,43,6.50
2017,04,02,09,44,6.60
2017,04,02,09,45,6.70
2017,04,02,09,46,6.80
2017,04,02,09,47,6.80
2017,04,02,09,48,6.90
2017,04,02,09,49,7.00
2017,04,02,09,50,6.90
2017,04,02,09,51,6.90
2017,04,02,09,52,6.90
2017,04,02,09,53,6.90
2017,04,02,09,54,6.90
2017,04,02,09,55,7.00
2017,04,02,09,56,7.00
2017,04,02,09,57,7.00
2017,04,02,09,58,7.10
2017,04,02,09,59,7.10
2017,04,02,10,00,7.10
2017,04,02,10,01,7.10
2017,04,02,10,02,7.20
2017,04,02,10,03,7.20
2017,04,02,10,04,7.30
2017,04,02,10,05,7.30
2017,04,02,10,06,7.30
2017,04,02,10,07,7.30
2017,04,02,10,08,7.30
2017,04,02,10,09,7.30
2017,04,02,10,10,7.30
2017,04,02,10,11,7.30
2017,04,02,10,12,7.40
2017,04,02,10,13,7.50
2017,04,02,10,14,7.50
2017,04,02,10,15,7.60
2017,04,02,10,16,7.60
2017,04,02,10,17,7.60
2017,04,02,10,18,7.60
2017,04,02,10,19,7.60
2017,04,02,10,20,7.60
2017,04,02,10,21,7.60
2017,04,02,10,22,7.70
2017,04,02,10,23,7.70
2017,04,02,10,24,7.70
2017,04,02,10,25,7.70
2017,04,02,10,26,7.70
2017,04,02,10,27,7.80
2017,04,02,10,28,7.80
2017,04,02,10,29,7.90
2017,04,02,10,30,7.90
2017,04,02,10,31,8.00
2017,04,02,10,32,8.10
2017,04,02,10,33,8.20
2017,04,02,10,34,8.30
2017,04,02,10,35,8.40
2017,04,02,10,36,8.50
2017,04,02,10,37,8.70
2017,04,02,10,38,8.80
2017,04,02,10,39,8.90
2017,04,02,10,40,8.90
2017,04,02,10,41,8.90
2017,04,02,10,42,8.90
2017,04,02,10,43,8.90
2017,04,02,10,44,8.90
2017,04,02,10,45,8.90
2017,04,02,10,46,8.90
2017,04,02,10,47,8.90
2017,04,02,10,48,9.00
2017,04,02,10,49,9.10
2017,04,02,10,50,9.10
2017,04,02,10,51,9.20
2017,04,02,10,52,9.30
2017,04,02,10,53,9.30
2017,04,02,10,54,9.30
2017,04,02,10,55,9.30
2017,04,02,10,56,9.20
2017,04,02,10,57,9.20
2017,04,02,10,58,9.20
2017,04,02,10,59,9.30
2017,04,02,11,00,9.40
2017,04,02,11,01,9.50
2017,04,02,11,02,9.60
2017,04,02,11,03,9.60
2017,04,02,11,04,9.70
2017,04,02,11,05,9.70
2017,04,02,11,06,9.80
2017,04,02,11,07,9.80
2017,04,02,11,08,9.80
2017,04,02,11,09,9.80
2017,04,02,11,10,9.60
2017,04,02,11,11,9.60
2017,04,02,11,12,9.50
2017,04,02,11,13,9.40
2017,04,02,11,14,9.50
2017,04,02,11,15,9.60
2017,04,02,11,16,9.60
2017,04,02,11,17,9.60
2017,04,02,11,18,9.60
2017,04,02,11,19,9.60
2017,04,02,11,20,9.60
2017,04,02,11,21,9.60
2017,04,02,11,22,9.60
2017,04,02,11,23,9.60
2017,04,02,11,24,9.60
2017,04,02,11,25,9.60
2017,04,02,11,26,9.60
2017,04,02,11,27,9.50
2017,04,02,11,28,9.40
2017,04,02,11,29,9.40
2017,04,02,11,30,9.30
2017,04,02,11,31,9.30
2017,04,02,11,32,9.30
2017,04,02,11,33,9.30
2017,04,02,11,34,9.30
2017,04,02,11,35,9.30
2017,04,02,11,36,9.40
2017,04,02,11,37,9.50
2017,04,02,11,38,9.60
2017,04,02,11,39,9.60
2017,04,02,11,40,9.50
2017,04,02,11,41,9.50
2017,04,02,11,42,9.50
2017,04,02,11,43,9.60
2017,04,02,11,44,9.70
2017,04,02,11,45,9.70
2017,04,02,11,46,9.80
2017,04,02,11,47,9.80
2017,04,02,11,48,9.90
2017,04,02,11,49,9.90
2017,04,02,11,50,10.00
2017,04,02,11,51,10.10
2017,04,02,11,52,10.20
2017,04,02,11,53,10.20
2017,04,02,11,54,10.20
2017,04,02,11,55,10.20
2017,04,02,11,56,10.30
2017,04,02,11,57,10.30
2017,04,02,11,58,10.40
2017,04,02,11,59,10.40
2017,04,02,12,00,10.50
2017,04,02,12,01,10.60
2017,04,02,12,02,10.70
2017,04,02,12,03,10.60
2017,04,02,12,04,10.60
2017,04,02,12,05,10.60
2017,04,02,12,06,10.60
2017,04,02,12,07,10.70
2017,04,02,12,08,10.70
2017,04,02,12,09,10.60
2017,04,02,12,10,10.60
2017,04,02,12,11,10.60
2017,04,02,12,12,10.70
2017,04,02,12,13,10.70
2017,04,02,12,14,10.70
2017,04,02,12,15,10.70
2017,04,02,12,16,10.60
2017,04,02,12,17,10.60
2017,04,02,12,18,10.60
2017,04,02,12,19,10.60
2017,04,02,12,20,10.70
2017,04,02,12,21,10.70
2017,04,02,12,22,10.70
2017,04,02,12,23,10.80
2017,04,02,12,24,10.80
2017,04,02,12,25,10.80
2017,04,02,12,26,10.80
2017,04,02,12,27,10.90
2017,04,02,12,28,10.90
2017,04,02,12,29,10.90
2017,04,02,12,30,10.90
2017,04,02,12,31,10.90
2017,04,02,12,32,10.90
2017,04,02,12,33,10.90
2017,04,02,12,34,11.00
2017,04,02,12,35,11.00
2017,04,02,12,36,11.00
2017,04,02,12,37,11.00
2017,04,02,12,38,11.10
2017,04,02,12,39,11.10
2017,04,02,12,40,11.10
2017,04,02,12,41,11.10
2017,04,02,12,42,11.10
2017,04,02,12,43,11.10
2017,04,02,12,44,11.10
2017,04,02,12,45,11.10
2017,04,02,12,46,11.00
2017,04,02,12,47,11.00
2017,04,02,12,48,11.00
2017,04,02,12,49,11.00
2017,04,02,12,50,10.90
2017,04,02,12,51,10.90
2017,04,02,12,52,10.90
2017,04,02,12,53,10.90
2017,04,02,12,54,10.90
2017,04,02,12,55,11.00
2017,04,02,12,56,11.00
2017,04,02,12,57,11.00
2017,04,02,12,58,11.10
2017,04,02,12,59,11.20
2017,04,02,13,00,11.20
2017,04,02,13,01,11.30
2017,04,02,13,02,11.40
2017,04,02,13,03,11.50
2017,04,02,13,04,11.60
2017,04,02,13,05,11.60
2017,04,02,13,06,11.60
2017,04,02,13,07,11.50
2017,04,02,13,08,11.50
2017,04,02,13,09,11.40
2017,04,02,13,10,11.50
2017,04,02,13,11,11.50
2017,04,02,13,12,11.60
2017,04,02,13,13,11.60
2017,04,02,13,14,11.70
2017,04,02,13,15,11.70
2017,04,02,13,16,11.70
2017,04,02,13,17,11.70
2017,04,02,13,18,11.70
2017,04,02,13,19,11.70
2017,04,02,13,20,11.70
2017,04,02,13,21,11.70
2017,04,02,13,22,11.70
2017,04,02,13,23,11.80
2017,04,02,13,24,11.80
2017,04,02,13,25,11.80
2017,04,02,13,26,11.90
2017,04,02,13,27,11.90
2017,04,02,13,28,11.90
2017,04,02,13,29,12.00
2017,04,02,13,30,12.00
2017,04,02,13,31,12.00
2017,04,02,13,32,12.10
2017,04,02,13,33,12.00
2017,04,02,13,34,12.10
2017,04,02,13,35,12.10
2017,04,02,13,36,12.20
2017,04,02,13,37,12.30
2017,04,02,13,38,12.30
2017,04,02,13,39,12.20
2017,04,02,13,40,12.20
2017,04,02,13,41,12.30
2017,04,02,13,42,12.20
2017,04,02,13,43,12.10
2017,04,02,13,44,12.00
2017,04,02,13,45,11.90
2017,04,02,13,46,11.80
2017,04,02,13,47,11.80
2017,04,02,13,48,11.80
2017,04,02,13,49,11.80
2017,04,02,13,50,11.70
2017,04,02,13,51,11.60
2017,04,02,13,52,11.60
2017,04,02,13,53,11.60
2017,04,02,13,54,11.60
2017,04,02,13,55,11.60
2017,04,02,13,56,11.60
2017,04,02,13,57,11.70
2017,04,02,13,58,11.70
2017,04,02,13,59,11.70
2017,04,02,14,00,11.70
2017,04,02,14,01,11.70
2017,04,02,14,02,11.60
2017,04,02,14,03,11.50
2017,04,02,14,04,11.40
2017,04,02,14,05,11.30
2017,04,02,14,06,11.10
2017,04,02,14,07,10.90
2017,04,02,14,08,10.70
2017,04,02,14,09,10.60
2017,04,02,14,10,10.50
2017,04,02,14,11,10.40
2017,04,02,14,12,10.30
2017,04,02,14,13,10.30
2017,04,02,14,14,10.30
2017,04,02,14,15,10.20
2017,04,02,14,16,10.20
2017,04,02,14,17,10.20
2017,04,02,14,18,10.10
2017,04,02,14,19,10.10
2017,04,02,14,20,10.10
2017,04,02,14,21,10.00
2017,04,02,14,22,10.00
2017,04,02,14,23,9.90
2017,04,02,14,24,9.90
2017,04,02,14,25,10.00
2017,04,02,14,26,9.90
2017,04,02,14,27,9.90
2017,04,02,14,28,10.00
2017,04,02,14,29,10.00
2017,04,02,14,30,10.00
2017,04,02,14,31,10.00
2017,04,02,14,32,10.00
2017,04,02,14,33,10.00
2017,04,02,14,34,10.00
2017,04,02,14,35,10.00
2017,04,02,14,36,10.00
2017,04,02,14,37,10.10
2017,04,02,14,38,10.10
2017,04,02,14,39,10.10
2017,04,02,14,40,10.00
2017,04,02,14,41,10.00
2017,04,02,14,42,10.00
2017,04,02,14,43,10.00
2017,04,02,14,44,10.00
2017,04,02,14,45,10.10
2017,04,02,14,46,10.10
2017,04,02,14,47,10.10
2017,04,02,14,48,10.10
2017,04,02,14,49,10.10
2017,04,02,14,50,10.10
2017,04,02,14,51,10.10
2017,04,02,14,52,10.10
2017,04,02,14,53,10.10
2017,04,02,14,54,10.10
2017,04,02,14,55,10.10
2017,04,02,14,56,10.10
2017,04,02,14,57,10.10
2017,04,02,14,58,10.00
2017,04,02,14,59,10.00
2017,04,02,15,00,10.00
2017,04,02,15,01,10.00
2017,04,02,15,02,10.00
2017,04,02,15,03,10.00
2017,04,02,15,04,10.00
2017,04,02,15,05,10.10
2017,04,02,15,06,10.10
2017,04,02,15,07,10.10
2017,04,02,15,08,10.10
2017,04,02,15,09,10.20
2017,04,02,15,10,10.20
2017,04,02,15,11,10.20
2017,04,02,15,12,10.30
2017,04,02,15,13,10.30
2017,04,02,15,14,10.40
2017,04,02,15,15,10.40
2017,04,02,15,16,10.40
2017,04,02,15,17,10.40
2017,04,02,15,18,10.40
2017,04,02,15,19,10.40
2017,04,02,15,20,10.40
2017,04,02,15,21,10.40
2017,04,02,15,22,10.40
2017,04,02,15,23,10.40
2017,04,02,15,24,10.40
2017,04,02,15,25,10.40
2017,04,02,15,26,10.50
2017,04,02,15,27,10.50
2017,04,02,15,28,10.50
2017,04,02,15,29,10.60
2017,04,02,15,30,10.50
2017,04,02,15,31,10.50
2017,04,02,15,32,10.40
2017,04,02,15,33,10.30
2017,04,02,15,34,10.20
2017,04,02,15,35,10.10
2017,04,02,15,36,10.10
2017,04,02,15,37,10.20
2017,04,02,15,38,10.20
2017,04,02,15,39,10.20
2017,04,02,15,40,10.30
2017,04,02,15,41,10.30
2017,04,02,15,42,10.30
2017,04,02,15,43,10.40
2017,04,02,15,44,10.40
2017,04,02,15,45,10.50
2017,04,02,15,46,10.50
2017,04,02,15,47,10.60
2017,04,02,15,48,10.70
2017,04,02,15,49,10.70
2017,04,02,15,50,10.70
2017,04,02,15,51,10.80
2017,04,02,15,52,10.80
2017,04,02,15,53,10.80
2017,04,02,15,54,10.90
2017,04,02,15,55,11.00
2017,04,02,15,56,11.10
2017,04,02,15,57,11.00
2017,04,02,15,58,11.00
2017,04,02,15,59,10.90
2017,04,02,16,00,10.90
2017,04,02,16,01,10.90
2017,04,02,16,02,10.90
2017,04,02,16,03,10.90
2017,04,02,16,04,11.00
2017,04,02,16,05,11.00
2017,04,02,16,06,11.10
2017,04,02,16,07,11.20
2017,04,02,16,08,11.20
2017,04,02,16,09,11.30
2017,04,02,16,10,11.30
2017,04,02,16,11,11.30
2017,04,02,16,12,11.30
2017,04,02,16,13,11.40
2017,04,02,16,14,11.30
2017,04,02,16,15,11.30
2017,04,02,16,16,11.30
2017,04,02,16,17,11.20
2017,04,02,16,18,11.20
2017,04,02,16,19,11.20
2017,04,02,16,20,11.30
2017,04,02,16,21,11.30
2017,04,02,16,22,11.30
2017,04,02,16,23,11.30
2017,04,02,16,24,11.30
2017,04,02,16,25,11.20
2017,04,02,16,26,11.20
2017,04,02,16,27,11.10
2017,04,02,16,28,11.10
2017,04,02,16,29,11.10
2017,04,02,16,30,11.00
2017,04,02,16,31,10.90
2017,04,02,16,32,10.80
2017,04,02,16,33,10.70
2017,04,02,16,34,10.70
2017,04,02,16,35,10.70
2017,04,02,16,36,10.70
2017,04,02,16,37,10.70
2017,04,02,16,38,10.70
2017,04,02,16,39,10.60
2017,04,02,16,40,10.60
2017,04,02,16,41,10.60
2017,04,02,16,42,10.60
2017,04,02,16,43,10.50
2017,04,02,16,44,10.50
2017,04,02,16,45,10.50
2017,04,02,16,46,10.40
2017,04,02,16,47,10.40
2017,04,02,16,48,10.40
2017,04,02,16,49,10.40
2017,04,02,16,50,10.40
2017,04,02,16,51,10.50
2017,04,02,16,52,10.50
2017,04,02,16,53,10.50
2017,04,02,16,54,10.50
2017,04,02,16,55,10.50
2017,04,02,16,56,10.50
2017,04,02,16,57,10.60
2017,04,02,16,58,10.60
2017,04,02,16,59,10.60
2017,04,02,17,00,10.60
2017,04,02,17,01,10.70
2017,04,02,17,02,10.80
2017,04,02,17,03,10.90
2017,04,02,17,04,10.90
2017,04,02,17,05,10.90
2017,04,02,17,06,10.90
2017,04,02,17,07,10.80
2017,04,02,17,08,10.80
2017,04,02,17,09,10.80
2017,04,02,17,10,10.80
2017,04,02,17,11,10.80
2017,04,02,17,12,10.80
2017,04,02,17,13,10.80
2017,04,02,17,14,10.80
2017,04,02,17,15,10.90
2017,04,02,17,16,10.90
2017,04,02,17,17,10.90
2017,04,02,17,18,11.00
2017,04,02,17,19,10.90
2017,04,02,17,20,10.90
2017,04,02,17,21,10.80
2017,04,02,17,22,10.70
2017,04,02,17,23,10.60
2017,04,02,17,24,10.60
2017,04,02,17,25,10.60
2017,04,02,17,26,10.50
2017,04,02,17,27,10.50
2017,04,02,17,28,10.50
2017,04,02,17,29,10.50
2017,04,02,17,30,10.60
2017,04,02,17,31,10.60
2017,04,02,17,32,10.50
2017,04,02,17,33,10.50
2017,04,02,17,34,10.50
2017,04,02,17,35,10.40
2017,04,02,17,36,10.40
2017,04,02,17,37,10.40
2017,04,02,17,38,10.40
2017,04,02,17,39,10.40
2017,04,02,17,40,10.40
2017,04,02,17,41,10.40
2017,04,02,17,42,10.30
2017,04,02,17,43,10.30
2017,04,02,17,44,10.30
2017,04,02,17,45,10.20
2017,04,02,17,46,10.20
2017,04,02,17,47,10.20
2017,04,02,17,48,10.20
2017,04,02,17,49,10.20
2017,04,02,17,50,10.20